Terminal Aerodrome Forecast
Issued by NWS

Current Version | Previous Version | Graphics & Text | Print | Product List | Glossary On
Versions: 1 2 3 4 5 6 7 8 9 10 11 12 13 14 15 16 17 18 19 20
000
FTUS41 KPBZ 200520
TAFHLG
TAF
KHLG 200520Z 2006/2106 00000KT P6SM SCT080
     FM201000 00000KT 5SM BR SCT080
      TEMPO 2010/2013 2SM BR
     FM201300 00000KT P6SM BKN060
     FM201900 00000KT P6SM VCSH BKN035=

USA.gov is the U.S. government's official web portal to all federal, state and local government web resources and services.